COWK1: Cowskin Creek at 119th N. Wichita, KS

Data processed at Tue May 21 2019 23:50


All information presented herein is the property of the government of the United States of America and may be revised or deleted at any time without prior notice.
Dissemination of this information without the expressed written consent of the Public Affairs Office, Tulsa District U.S. Army Corps of Engineers is strictly prohibited.
These data are gathered electronically and, as presented, have not undergone any form of quality control. These data are not guaranteed to be valid or correct.
Go to home page.
Go to station list.
Go to home page.

Upstream stations:

Downstream station:
Previous Day
Next Day
Current Day
    
SHEF ID:       COWK1     COWSKIN C AT 119TH ST AT WICHITA
STATION TYPE:  
Regulating: Stage =    18.00, Flow =     1458

               PRECIP     STAGE  RIV-FLOW  BAT-LOAD
                   in        ft       cfs      volt
              Ccp-Rev   Ccp-Rev   Ccp-Rev   Ccp-Rev
(US/Central)
05/21 00:00      0.00     12.07       329     12.41
05/21 01:00      0.03     12.53       384     12.41
05/21 02:00      0.00     12.98       442     12.41
05/21 03:00      0.02     13.44       506     12.41
05/21 04:00      0.32     13.94       580     12.41
05/21 05:00      0.43     14.55       679     12.41
05/21 06:00      0.32     15.29       810     12.41
05/21 07:00      0.22     15.98       945     12.17
05/21 08:00      0.11     16.49      1052     11.53
05/21 09:00      0.02     16.82      1125     11.53
05/21 10:00      0.00     17.04      1175     11.93
05/21 11:00      0.03     17.25      1224     12.09
05/21 12:00      0.02     17.42      1265     11.86
05/21 13:00      0.07     17.59      1320     12.41
05/21 14:00      0.00     17.76      1376     12.65
05/21 15:00      0.00     17.96      1444     12.57
05/21 16:00      0.00     18.25      1547     12.81
05/21 17:00      0.00     18.55      1716     12.25
05/21 18:00      0.03     18.89      1976     12.25
05/21 19:00      0.00     19.20      2396     12.09
05/21 20:00      0.00     19.43      2770     12.09
05/21 21:00      0.00     19.53      2949     12.09
05/21 22:00      0.00     19.56      3004     12.01
05/21 23:00      0.00     19.56      3004     11.70